This demonstration page uses our WeatherBlox Daily Observations layout. Learn more.

Left ArrowRight Arrow

44.89941, -97.11507

Hourly Observations for July 2, 2020

Temp ( °F °C ) Dew Point ( °F °C ) Humidity (%) Winds ( mph kmh ) Pressure ( in mb ) Visibility ( mi km ) Precip ( " mm )
12:53 am 00:53 Clear 71 21.7 68 20 90 90 SSE 6 9 29.96 1015 10 16 0.00 0.00
1:53 am 01:53 Clear 71 21.7 67 19.4 87 87 SSE 7 11 29.96 1015 10 16 0.00 0.00
2:53 am 02:53 Clear 70 21.1 67 19.4 90 90 SSE 7 11 29.96 1015 10 16 0.00 0.00
3:53 am 03:53 Clear 69 20.6 68 20 96 96 SSE 8 13 29.97 1015 10 16 0.00 0.00
4:53 am 04:53 Clear 69 20.6 68 20 96 96 SSE 9 15 29.98 1015 10 16 0.00 0.00
5:53 am 05:53 Sunny 68 20 67 19.4 96 96 SSE 8 13 30.00 1016 7 11 0.00 0.00
6:53 am 06:53 Sunny 68 20 67 19.4 96 96 SSE 8 13 30.01 1016 8 13 0.00 0.00
7:53 am 07:53 Sunny 71 21.7 69 20.6 94 94 SSE 8 13 30.02 1017 10 16 0.00 0.00
8:53 am 08:53 Sunny 76 24.4 71 21.7 85 85 S 9 15 30.02 1017 10 16 0.00 0.00
9:53 am 09:53 Sunny 78 25.6 70 21.1 76 76 S 15 24 30.03 1017 10 16 0.00 0.00
10:53 am 10:53 Sunny 80 26.7 71 21.7 74 74 SSE 13 20 30.03 1017 10 16 0.00 0.00
11:53 am 11:53 Sunny 82 27.8 70 21.1 67 67 SSE 16 26 30.03 1017 10 16 0.00 0.00
12:53 pm 12:53 Sunny 84 28.9 71 21.7 65 65 S 13 20 30.03 1017 10 16 0.00 0.00
1:53 pm 13:53 Sunny 86 30 70 21.1 59 59 S 16 26 30.02 1017 10 16 0.00 0.00
2:53 pm 14:53 Sunny 87 30.6 69 20.6 55 55 SSE 14 22 30.00 1016 10 16 0.00 0.00
3:53 pm 15:53 Sunny 88 31.1 68 20 52 52 SSE 15 24 29.99 1016 10 16 0.00 0.00
4:53 pm 16:53 Sunny 87 30.6 69 20.6 55 55 SSE 14 22 29.99 1016 10 16 0.00 0.00
5:53 pm 17:53 Sunny 87 30.6 68 20 53 53 SSE 14 22 29.98 1015 10 16 0.00 0.00
6:53 pm 18:53 Sunny 85 29.4 69 20.6 59 59 SE 14 22 29.95 1014 10 16 0.00 0.00
7:53 pm 19:53 Sunny 84 28.9 69 20.6 61 61 SE 12 19 29.97 1015 10 16 0.00 0.00
8:53 pm 20:53 Sunny 81 27.2 69 20.6 67 67 ESE 7 11 29.96 1015 10 16 0.00 0.00
9:53 pm 21:53 Clear 79 26.1 70 21.1 74 74 ESE 8 13 29.97 1015 10 16 0.00 0.00
10:53 pm 22:53 Clear 77 25 70 21.1 79 79 SE 8 13 30.03 1017 10 16 0.00 0.00
11:53 pm 23:53 Clear 75 23.9 70 21.1 84 84 SE 9 15 30.04 1017 10 16 0.00 0.00

Powered by AerisWeather